{"data":{"norad_id":51787,"intl_designator":"2022-017V","name":"STARLINK-3619","alt_names":[],"object_type":"PAYLOAD","status":"ACTIVE","operator":null,"country":"US","launch_date":"2022-02-25","launch_site_code":"AFWTR","launch_vehicle":null,"mission":null,"orbit_class":"UNKNOWN","rcs_meters":null,"size_class":null,"mass_kg":null,"dimensions":null,"purposes":["comms"],"wikipedia_slug":null,"has_3d_model":false,"image_url":null,"decayed_at":null,"tle_current":{"epoch":"2026-09-19T04:59:16.716768Z","epoch_age_seconds":163303,"freshness":"FRESH","line1":"1 51787U 22017V   26262.20783237  .00006434  00000+0  20169-3 0  9997","line2":"2 51787  53.1588 183.4150 0001739  86.5215 273.5986 15.34353700251727","mean_motion":15.343537,"eccentricity":0.0001739,"inclination_deg":53.1588,"raan_deg":183.415,"arg_perigee_deg":86.5215,"mean_anomaly_deg":273.5986,"bstar":0.00020169,"rev_number":25172,"period_min":93.850589991082,"perigee_km":461.65121097551,"apogee_km":464.03050307418,"semimajor_km":6840.9778570248,"source":"CELESTRAK","updated_at":"2026-09-20T09:00:39.939816Z"}}}